Showing default

QIANFAN-66, 62796

Orbit data source: Space-Track

QIANFAN-66, 62796 is a Chinese payload satellite in LEO that was launched on Thu, 23 Jan 2025 UTC via a CHANG ZHENG 6A launch vehicle from the Taiyaun Space Center, China (TSC). Payload-class satellites include a variety of spacecraft equipped with specific instruments for various scientific and technological missions. These include communications satellites like Starlink; space stations such as the ISS; scientific satellites like the Hubble; Earth observation satellites from companies like Planet Labs, Umbra, and HawkEye 360; GPS; miniature CubeSats for education and research; and military/defense satellites.

Loading next visibility...
Identifier
62796, 2025-016M
Orbit
LEO
Country
Flag of CNCN / PRC
Related business
Manufacturer
SECM
Mission
Operational Commercial Communications
Bus & Motor
QIANFAN, Unknown motor
Mass
267 kg wet, ~267 kg dry
Launch date (UTC)
2025-01-23 (9 months ago)
Launch vehicle
CHANG ZHENG 6A
Launch site
Taiyaun Space Center, China (TSC)
Object type
Payload
Rocket body
Debris
Shape & HBR
Box + 1 Pan, 1.3 m
Radar Cross Section
13.200 m², Large (>1 m²)

Expand to show TLE details & history
Last TLE update: 1 day ago

TLE from 1 day ago
0 QIANFAN-66
1 62796U 25016M   25306.46835937  .00000071  00000-0  90945-4 0  9994
2 62796  88.9749 107.1857 0016735  95.2741 265.0320 13.50978245 41856
Epoch: 2025-11-02T11:14Z
TLE epoch observation values (Epoch: 2025-11-02T11:14:26.249Z)
Latitude
-0.00005°
Longitude
-103.40732°
Altitude
1,072.715 km
Speed
7.315 km/s
True Right ascension
07h 08m 44s
True Declination
0° 00' 00"
Sunlit
Object was in daylight at epoch
Visualization orbit readout
Latitude
Unknown
Longitude
Unknown
Altitude
Unknown
Speed
Unknown
Apparent Right ascension
Unknown
Apparent Declination
Unknown
Sunlit
N/A
Visualization observer readout
Local Sidereal Time
14:39:07
Azimuth
Unknown
Elevation
Unknown
Doppler factor
Unknown
Orbital elements
Apogee altitude
1,078.17 km
Perigee altitude
1,053.255 km
Semi-major axis
7,443.85 km
Eccentricity
0.00167
Inclination
88.9749°
RAAN
107.1857°
Arg. of periapsis
95.2741°
True anomaly
264.84099°
Mean anomaly
265.032°
Eccentric anomaly
264.93649°
Mean motion
3.37946 °/min
Orbital period
106.53 mins
BSTAR
0.000090945
Loading maneuver chart data...
Computing Atmospheric mass density...
Loading historical data...
Loading historical data...
Loading historical data...
Loading historical data...
Loading historical data...
Loading historical data...
Loading historical data...

Documentation

Showing up to 5 results
|